OBJECT C, 60456

Orbit data source: Space-Track

You're viewing an Uncataloged Satellite

Recently launched and/or uncataloged satellites may have evolving metadata. Metadata may include but not limited to: Owner, Maufacturer, Bus, Motor, and Mission.

OBJECT C, 60456 is a satellite owned by ISRO (IN) in LEO that was launched on Fri, 16 Aug 2024 UTC launched from the Sirharikota (SRI). Unknown objects in Earth's orbit typically refer to objects detected orbiting the Earth but have not yet been identified or cataloged. These objects could be anything from previously untracked satellites, spent rocket stages, debris from satellite collisions, or even natural meteoroids temporarily captured by Earth's gravity.

Not visible in the next 10 days
OBJECT C details
Identifier
60456, 2024-147C
Orbit
LEO
Last TLE update13 hours ago
Origin
Flag of INISRO (IN / IND)
ManufacturerISRO
MissionSpacecraft
Bus & MotorSS-3, Unknown motor
Mass~400 kg wet, ~400 kg dry
Launch date (UTC)
2024-08-16 (4 months ago)
Launch vehicleUnknown
Launch site
Sirharikota (SRI)
Object typeUnknown
Shape & HBRUnknown
Radar Cross SectionLarge (>1 m²)

Expand to show TLE details & history

TLE from 13 hours ago
0 OBJECT C
1 60456U 24147C   24360.89662140  .00118176  75488-5  58047-3 0  9998
2 60456  36.9198 154.0781 0056525 357.3923   2.6543 15.78861620 20679
Epoch: 2024-12-25T21:31Z
Definitive object data (Epoch: 2024-12-25T21:31:08.088Z)
Latitude-0.00002°
Longitude96.41058°
Altitude294.865 km
Speed7.755 km/s
True Right ascension10h 16m 18s
True Declination0° 00' 00"
Sunlit
Object was in full shadow at TLE epoch
Visualization TLE readout
Latitude13.95575°
Longitude-106.35102°
Altitude365.626 km
Speed7.674 km/s
Apparent Right ascension21h 08m 45s
Apparent Declination-12° 11' 15"
Sunlit
Object is in daylight
Visualization observer readout
Local Sidereal Time09:40:12
Azimuth16.226° NNE
Elevation-61.416°
Doppler factor1
Orbital elements
Apogee altitude374.636 km
Perigee altitude298.725 km
Semi-major axis6,714.817 km
Eccentricity0.0056525
Inclination36.9198°
RAAN154.0781°
Arg. of periapsis357.3923°
True anomaly2.68451°
Mean anomaly2.6543°
Eccentric anomaly2.66938°
Mean motion3.9445 °/min
BSTAR0.00058047
Orbital period91.27 mins
Loading maneuver chart data...
Loading historical data...
Loading historical data...
Loading historical data...
Loading historical data...
Loading historical data...
Loading historical data...
Loading historical data...
Other satellites on launch #147 in the year 2024 (2024-08-16 UTC)

OBJECT C Visibility forecast

Observer location: undefined°, undefined

OBJECT C is not visible in the next 10 days
Span
Click to sort rows by Start time (UTC) header in descending order
Start Az.
Max El. time (UTC)
Max El. Az.
Max El.
End time (UTC)
End Az.
|